This is the latest recevied weather packets stored in our database for station/object T10BNorth. If no packets are shown the sender has not sent any weather packets the latest 10 day(s).
| Time | Temp. | Humidity | Pressure | Rain* | Wind** | Luminosity | Snow |
|---|---|---|---|---|---|---|---|
| 1777992996 | 20° C | 59% | 1006.3 hPa | 0 mm | - | 858 W/m² | - |
| 1777992936 | 19.44° C | 62% | 1006.3 hPa | 0 mm | - | 849 W/m² | - |
| 1777992879 | 19.44° C | 59% | 1006.3 hPa | 0 mm | - | 842 W/m² | - |
| 1777992814 | 19.44° C | 58% | 1006.4 hPa | 0 mm | - | 856 W/m² | - |
| 1777992756 | 19.44° C | 61% | 1006.4 hPa | 0 mm | - | 800 W/m² | - |
| 1777992692 | 19.44° C | 59% | 1006.4 hPa | 0 mm | - | 805 W/m² | - |
| 1777992628 | 19.44° C | 59% | 1006.4 hPa | 0 mm | - | 816 W/m² | - |
| 1777992568 | 18.89° C | 59% | 1006.4 hPa | 0 mm | - | 793 W/m² | - |
| 1777992510 | 18.89° C | 59% | 1006.4 hPa | 0 mm | - | 796 W/m² | - |
| 1777992449 | 18.89° C | 59% | 1006.4 hPa | 0 mm | - | 809 W/m² | - |
| 1777992384 | 18.89° C | 60% | 1006.4 hPa | 0 mm | - | 810 W/m² | - |
| 1777992322 | 18.89° C | 61% | 1006.4 hPa | 0 mm | - | 754 W/m² | - |
| 1777992264 | 18.89° C | 61% | 1006.4 hPa | 0 mm | - | 729 W/m² | - |
| 1777992202 | 18.89° C | 59% | 1006.4 hPa | 0 mm | - | 721 W/m² | - |
| 1777992144 | 18.89° C | 60% | 1006.4 hPa | 0 mm | - | 712 W/m² | - |
| 1777992072 | 18.89° C | 64% | 1006.4 hPa | 0 mm | - | 724 W/m² | - |
| 1777992012 | 18.33° C | 62% | 1006.4 hPa | 0 mm | - | 729 W/m² | - |
| 1777991954 | 18.33° C | 61% | 1006.4 hPa | 0 mm | - | 756 W/m² | - |
| 1777991894 | 18.33° C | 60% | 1006.4 hPa | 0 mm | - | 705 W/m² | - |
| 1777991834 | 18.33° C | 60% | 1006.4 hPa | 0 mm | - | 701 W/m² | - |
| 1777991770 | 18.33° C | 62% | 1006.4 hPa | 0 mm | - | 729 W/m² | - |
| 1777991708 | 18.33° C | 63% | 1006.4 hPa | 0 mm | - | 677 W/m² | - |
| 1777991646 | 18.33° C | 61% | 1006.3 hPa | 0 mm | - | 707 W/m² | - |
| 1777991586 | 18.33° C | 61% | 1006.3 hPa | 0 mm | - | 701 W/m² | - |
| 1777991528 | 18.33° C | 60% | 1006.3 hPa | 0 mm | - | 682 W/m² | - |
* Rain latest hour (hover to see other rain measurements)
** Current wind speed in m/s (hover to see current wind gust speed)